Hourly Data Report for January 03, 2004

TORONTO CITY
ONTARIO

43°40'00.000" N
79°24'00.000" W
112.50 m
6158355
71508
XTO

Download Data

Hourly Data (January 2004)
Hourly Data Report for January 3, 2004
TIME
LST
Temp Definition
°C
Dew Point Definition
°C
Rel Hum Definition
%
Precip. Amount Definition
mm

Wind Dir Definition
10's deg

Wind Spd Definition
km/h
Visibility Definition
km
Stn Press Definition
kPa
Hmdx Definition


Wind Chill Definition


Weather Definition


00:00 6.2 5.9 98   LegendMM LegendMM LegendMM 99.58     LegendNANA
01:00 6.5 6.3 99   LegendMM LegendMM LegendMM 99.39     LegendNANA
02:00 6.8 6.7 99   LegendMM LegendMM LegendMM 99.33     LegendNANA
03:00 7.1 7.1 100   LegendMM LegendMM LegendMM 99.23     LegendNANA
04:00 8.7 8.7 100   LegendMM LegendMM LegendMM 99.13     LegendNANA
05:00 9.3 9.3 100   LegendMM LegendMM LegendMM 99.11     LegendNANA
06:00 8.6 8.5 99   LegendMM LegendMM LegendMM 99.15     LegendNANA
07:00 8.7 8.7 100   LegendMM LegendMM LegendMM 99.17     LegendNANA
08:00 9.6 9.6 100   LegendMM LegendMM LegendMM 99.22     LegendNANA
09:00 10.8 10.7 99   LegendMM LegendMM LegendMM 99.29     LegendNANA
10:00 11.5 10.9 96   LegendMM LegendMM LegendMM 99.34     LegendNANA
11:00 11.5 10.6 94   LegendMM LegendMM LegendMM 99.37     LegendNANA
12:00 13.2 11.0 87   LegendMM LegendMM LegendMM 99.41     LegendNANA
13:00 12.7 8.5 76   LegendMM LegendMM LegendMM 99.40     LegendNANA
14:00 12.4 7.0 70   LegendMM LegendMM LegendMM 99.44     LegendNANA
15:00 12.0 5.4 64   LegendMM LegendMM LegendMM 99.53     LegendNANA
16:00 11.7 4.1 60   LegendMM LegendMM LegendMM 99.59     LegendNANA
17:00 11.3 2.1 53   LegendMM LegendMM LegendMM 99.67     LegendNANA
18:00 10.2 0.8 52   LegendMM LegendMM LegendMM 99.69     LegendNANA
19:00 10.0 0.2 50   LegendMM LegendMM LegendMM 99.73     LegendNANA
20:00 9.6 -0.4 50   LegendMM LegendMM LegendMM 99.82     LegendNANA
21:00 9.0 -0.4 52   LegendMM LegendMM LegendMM 99.92     LegendNANA
22:00 7.9 -1.7 51   LegendMM LegendMM LegendMM 100.00     LegendNANA
23:00 7.2 -1.4 54   LegendMM LegendMM LegendMM 99.99     LegendNANA

Notes on Data Quality.

Legend

  • E = Estimated
  • M = Missing
  • NA = Not Available*
  • [empty] = Indicates an unobserved value
Date modified: